Location: Taaricht
(32.5378°N, 5.4251°W)
Time: 18:32:17
(UTC+00:00)

SL-24 R/B - RUBIN 2 - Pass Details

Date: 09 April 2020
Orbit: 569 x 1026 km, 64.6° (Epoch: 27 May)

Event Time Altitude Azimuth Distance (km) Brightness Sun altitude
Rises 19:17:02 0° 208° (SSW) 3,107 7.3 -6.9°
Reaches altitude 10° 19:19:14 10° 209° (SSW) 2,255 6.6 -7.3°
Maximum altitude 19:24:27 85° 298° (WNW) 828 4.2 -8.4°
Drops below altitude 10° 19:30:28 10° 27° (NNE) 2,583 6.6 -9.6°
Sets 19:33:09 0° 28° (NNE) 3,592 7.3 -10.2°
